STARLINK-37204

Last updated on Sun Apr 12 2026 00:02:08 GMT+0000 (Coordinated Universal Time)

1 68329U 26059J 26101.56185461 -.00596589 00000+0 -33145-2 0 9997 2 68329 53.1574 198.0892 0000724 94.8931 265.2175 15.80336344 3175
UTC large
Height (km)
Speed (km/s)
/
Latitude / Longitude
Inclination (degrees)
Orbital Period (minutes)
Azimuth
Elevation
Range (km)
Doppler Factor

Next 0 passes for location: London (51.5072 / 0.1276)

Sorry there are no passes over London.
STARLINK-37204